User: anonymous   Login
Location: Unspecified
(0.0000°N, 0.0000°E)
Time: 20:04:26
(UTC+00:00)
Language:

OBJECT DH - Orbit

View from above orbital plane
View from above orbital plane
View from above satellite
View from above satellite

Ground track
Ground track

The orbit is defined by the following mean orbital elements,

1 66769U          26145.45366169 +.00000000 +00000-0 +19228-3 0 00000
2 66769  97.4212 219.6270 0000909  50.0734 310.0581 15.20257857    05
Epoch (UTC): 25 May 2026 10:53:16
Eccentricity: 0.0000909
inclination: 97.4212°
perigee height: 504 km
apogee height: 506 km
right ascension of ascending node: 219.6270°
argument of perigee: 50.0734°
revolutions per day: 15.20257857
mean anomaly at epoch: 310.0581°

The dashed part of the orbit path shows where the satellite is in the earth's shadow,  

DLR